Regional Weather Roundup
Issued by NWS

Home | Current Version | Previous Version | Text Only | Print | Product List | Glossary On
Versions: 1 2 3 4 5 6 7 8 9 10 11 12 13 14 15 16 17 18 19 20 21 22 23 24 25 26 27 28 29 30 31 32 33 34 35 36 37 38 39 40 41 42 43 44 45 46 47 48 49 50
000
ASUS43 KLMK 310410
RWRKY
KENTUCKY REGIONAL WEATHER ROUNDUP
NATIONAL WEATHER SERVICE LOUISVILLE KY
1200 AM EDT FRI JUL 31 2015

NOTE "FAIR" INDICATES FEW OR NO CLOUDS BELOW 12,000 FEET
WITH NO SIGNIFICANT WEATHER AND/OR OBSTRUCTIONS TO VISIBILITY.

KYZ001>023-026-027-061>063-070>075-310500-
WESTERN AND SOUTH CENTRAL KENTUCKY

CITY           SKY/WX    TMP DP  RH WIND       PRES   REMARKS
PADUCAH        MOCLDY    69  66  90 CALM      30.10S
HENDERSON      CLEAR     68  64  88 SW3       30.08S
OWENSBORO      CLEAR     72  67  84 CALM      30.09S
HOPKINSVILLE   CLEAR     71  64  77 NW2       30.10S
BOWLING GREEN  CLEAR     71  62  73 CALM      30.10S
GLASGOW        CLEAR    N/A N/A N/A CALM      30.10S
$$

KYZ024-025-028>034-038-045-046-053-310500-
NORTH CENTRAL KENTUCKY

CITY           SKY/WX    TMP DP  RH WIND       PRES   REMARKS
LOUISVILLE/SDF PTCLDY    74  62  66 VRB3      30.07S
LOUISVILLE/LOU CLEAR     73  61  65 CALM      30.08S
FORT KNOX      PTCLDY    66  62  87 CALM      30.08S
$$

KYZ035>037-039>044-047>052-055>060-089>105-310500-
NORTHEAST KENTUCKY

CITY           SKY/WX    TMP DP  RH WIND       PRES   REMARKS
LEXINGTON      CLEAR     69  61  75 CALM      30.09S
COVINGTON      CLEAR     72  62  68 S3        30.07S
FRANKFORT      CLEAR     67  63  87 CALM      30.08R
$$

KYZ054-064>069-076>088-106>120-310500-
SOUTHEAST KENTUCKY

CITY           SKY/WX    TMP DP  RH WIND       PRES   REMARKS
JACKSON        PTCLDY    73  57  57 NW5       30.10S
LONDON         PTCLDY    70  59  68 CALM      30.10S
SOMERSET       CLEAR     64  59  82 CALM      30.11S
MIDDLESBORO    CLEAR     68  65  89 CALM      30.09S
MONTICELLO     PTCLDY    64  64 100 CALM      30.13S
$$



USA.gov is the U.S. government's official web portal to all federal, state and local government web resources and services.